Wind_Speed
9 8 3 4 2 4 5 8 3 4 7 2 23 6 9 7 9 6 5 29 30 33 36 34 30 26 24 24 23 20 18 15 13 13 13 14 14 15 15 16 15 14 12 10 10 10 8 6 5
8 6 6 3 4 3 7 5 15 7 11 19 11 14 6 6 11 1 26 29 28 34 36 35 31 28 25 24 23 21 18 16 15 14 15 16 17 17 18 17 16 13 10 10 10 8 6 6 5
8 9 6 4 5 10 10 8 2 4 12 8 10 9 7 6 9 5 22 30 32 38 35 34 30 28 26 24 23 22 19 17 15 15 16 17 17 17 17 17 15 13 11 9 8 7 6 6 5
7 7 3 3 13 10 10 2 5 4 13 11 3 8 8 16 6 17 25 31 33 35 33 32 29 27 25 24 23 22 20 17 14 13 14 16 17 17 16 15 14 12 10 8 8 7 6 6 6
12 4 2 4 12 7 5 11 13 3 5 4 9 8 10 21 18 17 23 26 34 35 33 31 29 27 25 24 23 22 21 18 15 13 14 15 16 16 15 15 13 11 9 7 5 5 6 7 8
7 3 1 12 21 2 7 26 22 8 12 18 10 12 7 13 13 20 29 27 30 32 33 31 28 26 25 24 24 23 20 18 16 14 14 15 15 14 13 13 11 9 6 5 4 4 4 5 6
6 4 6 4 5 6 15 16 7 5 5 14 13 4 6 14 15 22 27 31 35 35 35 33 30 27 25 23 23 22 20 18 16 14 14 15 15 14 13 10 7 6 4 3 2 2 2 3 4
7 4 4 6 12 10 8 8 14 11 9 17 14 6 9 26 22 26 30 33 39 36 35 34 32 30 27 25 23 21 19 17 15 13 12 13 13 13 11 9 7 5 4 2 1 1 2 3 4
10 3 6 8 9 14 3 4 0 6 11 10 8 17 30 28 31 32 34 34 39 38 36 35 34 30 27 25 24 22 19 17 15 14 13 13 13 12 11 9 8 6 5 3 2 2 3 4 4
6 6 12 7 17 4 6 6 6 6 12 19 24 24 19 34 38 39 38 38 40 40 38 36 35 31 30 27 25 23 21 18 17 15 14 13 12 11 11 9 7 4 3 3 3 3 3 4 6
7 15 15 5 17 19 4 10 8 4 9 18 13 20 15 40 43 42 40 38 43 41 40 38 33 32 28 28 27 24 22 19 17 15 13 13 13 13 11 8 6 4 3 4 3 2 3 4 5
6 13 24 8 28 16 4 10 3 15 22 24 22 21 14 30 46 44 40 38 39 41 39 37 33 30 28 26 25 23 21 19 17 16 14 14 13 11 11 10 10 6 3 7 2 4 3 4 6
7 3 12 32 26 22 24 17 11 27 28 32 33 30 23 39 45 43 41 39 38 40 40 40 38 34 31 27 24 22 21 17 14 15 14 13 12 10 12 13 10 6 4 4 3 5 6 8 9
5 14 24 25 17 15 17 19 16 42 30 33 30 22 15 40 41 39 40 42 39 40 39 39 38 35 31 30 28 24 20 17 16 15 12 12 12 11 10 11 7 6 6 8 7 8 10 11 12
16 11 12 13 5 8 13 18 30 31 31 34 30 25 16 36 36 38 45 43 38 40 38 41 39 36 34 31 28 23 21 19 16 13 12 13 13 13 12 9 8 7 8 10 11 10 12 12 14
3 3 4 9 11 8 16 27 16 25 22 26 29 25 16 20 44 47 47 44 40 42 40 38 38 36 33 31 26 24 24 21 17 18 16 15 17 16 12 11 10 9 11 12 12 12 14 15 16
4 5 7 6 4 7 16 21 4 16 17 24 27 27 21 12 30 48 51 49 45 41 41 40 37 34 33 31 31 28 22 23 22 21 20 17 18 16 14 10 13 12 12 13 14 14 16 18 19
5 4 2 4 2 6 13 23 12 20 13 22 26 27 24 21 22 35 48 49 47 46 43 40 37 35 37 34 31 26 22 25 23 22 22 18 18 18 16 13 14 13 14 15 17 17 19 18 16
10 12 7 5 9 9 6 14 9 7 19 15 22 29 27 21 22 27 38 42 46 48 46 42 40 38 34 39 34 30 31 27 25 27 22 21 20 20 18 13 11 14 17 18 19 19 15 12 13
9 10 13 5 6 6 9 17 9 4 9 16 23 22 28 28 25 29 35 45 46 43 44 43 39 36 36 38 40 36 31 32 30 28 25 23 23 20 14 12 14 16 18 18 17 14 11 11 10
9 13 8 6 7 15 9 18 14 6 14 18 23 23 27 30 31 33 38 43 44 48 47 44 41 39 39 40 40 32 32 28 28 27 26 22 17 14 13 16 18 17 15 13 13 12 9 6 4
6 4 1 5 5 5 1 7 12 6 10 8 16 19 26 33 34 35 39 41 47 46 44 42 43 40 40 42 38 35 37 35 31 28 23 19 15 17 17 17 16 12 12 12 11 8 5 7 5
9 7 6 4 7 3 6 4 5 8 7 11 10 21 21 26 34 38 40 42 42 46 48 47 44 44 41 40 40 37 39 35 26 23 22 21 17 18 15 15 12 11 11 9 7 6 5 6 9
5 5 2 4 3 8 7 7 17 11 11 8 8 19 15 20 30 36 38 43 45 50 52 52 48 45 43 47 43 40 40 37 30 28 23 19 16 15 12 9 10 9 7 5 5 5 7 10 11
4 6 2 2 4 10 9 9 21 3 5 12 11 13 12 15 30 39 43 48 50 52 54 53 51 48 49 49 45 40 38 36 31 24 20 17 16 12 9 8 7 8 6 5 7 9 11 10 8
7 8 4 6 5 11 9 8 16 13 16 27 30 31 24 18 25 40 47 48 52 53 55 53 53 51 50 47 40 34 32 31 26 22 19 15 14 9 8 8 9 7 5 9 11 9 8 8 9
4 5 9 4 5 3 4 3 23 22 16 14 20 23 19 24 23 38 46 49 51 56 58 56 55 51 48 45 41 36 31 28 25 21 18 15 12 10 9 9 8 6 7 6 5 6 8 10 10
12 4 2 3 5 7 5 4 11 5 19 22 14 7 9 11 22 33 46 53 51 56 57 58 55 51 43 38 40 40 30 24 21 19 16 13 12 10 10 11 9 8 6 5 6 7 9 10 12
2 4 6 4 5 5 3 5 18 18 9 11 15 7 8 12 20 30 44 48 52 56 55 57 52 44 42 40 38 32 28 24 22 18 16 14 13 14 12 10 9 7 6 5 7 8 9 10 13
3 3 2 3 5 5 3 12 5 3 6 5 7 9 11 15 20 27 38 40 47 51 54 51 44 42 44 41 36 30 27 25 20 19 19 17 17 14 11 9 8 7 5 6 8 10 12 13 16
Wind_Direction
221 228 226 176 64 64 244 245 220 248 314 187 334 316 200 223 169 206 189 167 169 170 170 172 172 172 177 176 173 170 164 157 150 145 146 148 147 146 145 146 146 147 149 151 146 138 130 129 132
200 193 174 146 128 178 247 210 236 197 247 313 337 323 288 224 228 179 155 165 172 170 171 171 171 172 176 176 173 170 166 159 152 149 150 152 152 152 151 152 154 153 147 145 140 136 133 134 144
174 176 167 154 182 213 240 207 96 218 271 272 320 329 294 284 232 229 172 164 171 172 173 170 171 171 174 176 174 170 168 164 158 155 153 155 155 153 152 156 159 159 155 147 143 147 152 151 155
177 172 200 162 228 250 234 246 122 321 298 284 294 298 285 280 277 207 183 175 171 171 171 171 172 172 174 176 176 173 169 167 163 158 156 157 157 155 155 161 165 167 166 164 159 155 157 158 161
185 171 208 234 246 250 251 270 275 245 273 243 316 274 266 273 256 189 175 179 172 171 173 173 173 174 174 178 176 177 173 169 167 163 161 161 161 159 157 160 164 168 168 165 166 166 166 167 171
165 156 166 231 236 201 247 254 267 231 263 285 281 249 244 217 224 173 171 168 171 172 173 174 174 176 175 178 178 179 177 173 172 170 166 164 166 163 160 160 160 162 168 171 173 179 178 178 182
162 133 222 237 253 271 247 242 232 244 229 260 257 230 253 231 226 179 170 170 171 174 173 175 174 176 177 178 179 180 180 178 176 174 172 169 170 170 167 160 156 155 158 164 180 192 195 200 204
200 136 237 230 236 262 249 184 241 206 252 286 277 238 247 243 199 178 173 174 176 176 178 177 175 176 176 177 178 180 182 181 179 180 177 175 177 176 171 164 161 159 155 145 142 202 220 223 221
191 185 222 222 200 221 63 206 266 274 259 292 291 280 247 217 192 179 177 178 179 180 180 179 178 177 176 176 177 180 182 183 185 183 183 183 183 180 175 174 172 169 171 172 185 202 227 238 231
186 196 216 211 233 269 254 271 288 294 294 295 303 348 246 208 188 183 182 181 183 183 182 182 180 177 179 176 179 181 182 186 190 189 186 185 185 182 182 182 177 179 191 194 198 215 235 238 232
209 233 228 220 242 258 227 271 255 252 278 263 277 330 190 194 188 188 187 187 185 187 185 184 183 184 180 181 183 183 186 190 191 191 188 187 184 189 186 182 184 148 188 200 224 246 246 238 265
241 233 239 258 250 271 270 270 214 233 252 266 277 296 295 197 187 190 190 188 190 189 187 184 189 189 187 188 188 189 188 190 190 187 189 191 186 192 186 165 154 142 125 159 148 160 206 257 277
240 265 242 241 249 248 267 266 270 268 263 268 274 290 290 210 193 194 195 191 191 188 190 189 188 189 188 189 191 191 189 187 188 195 192 190 185 179 180 176 184 189 200 203 204 224 249 268 286
241 216 249 265 252 248 246 270 269 262 269 268 274 275 280 201 203 191 197 196 191 189 189 188 191 189 189 192 192 189 190 188 184 193 195 199 184 182 175 186 198 213 238 248 261 269 277 284 293
275 280 276 243 229 242 246 270 244 259 262 278 276 273 274 203 204 197 202 203 194 192 187 188 190 188 192 193 191 189 190 195 190 186 195 207 192 191 200 198 213 225 251 265 276 287 285 288 292
301 245 219 265 187 213 174 257 269 249 240 248 261 262 249 203 211 206 209 205 201 193 191 186 186 188 193 191 190 194 196 196 193 197 180 188 189 195 203 217 236 244 252 268 279 288 279 277 283
234 244 226 292 212 201 194 250 196 239 214 230 246 253 243 228 198 207 210 211 209 203 195 190 190 195 193 192 189 188 188 181 171 167 183 186 191 197 213 231 240 252 265 274 280 282 274 273 281
219 258 235 208 294 201 224 255 267 279 245 228 240 253 245 238 208 193 202 204 205 204 203 196 199 204 200 198 194 189 184 178 174 179 190 193 196 211 216 228 235 257 271 274 277 272 269 274 283
293 288 275 304 320 337 263 273 267 248 260 239 244 242 242 234 220 197 189 192 200 200 198 200 201 207 206 196 199 193 197 185 191 195 196 203 204 212 222 233 250 270 278 271 268 265 272 277 287
247 265 277 288 266 296 300 289 283 268 257 250 236 226 237 232 220 206 193 193 193 192 195 198 205 201 198 207 203 205 194 194 200 205 208 212 211 212 222 249 260 273 269 270 265 263 261 279 291
237 245 257 259 284 278 277 284 269 241 239 267 266 238 230 232 227 204 197 195 192 193 192 194 197 198 201 203 204 206 202 203 211 204 210 210 210 216 231 246 257 265 268 264 257 258 263 254 194
224 240 297 307 272 259 43 281 262 178 229 234 260 259 235 234 232 216 201 197 191 188 188 191 194 195 203 203 201 202 200 202 197 199 206 202 207 218 231 249 256 262 258 254 250 241 211 198 251
239 216 231 265 262 9 293 277 256 162 232 251 248 261 255 233 227 215 204 203 201 192 193 192 195 196 204 205 197 202 205 202 197 196 206 210 205 219 231 248 261 247 240 234 230 214 218 250 288
213 163 145 181 132 248 202 208 268 222 229 271 261 258 269 252 223 225 214 207 205 198 195 195 196 197 203 198 201 207 209 201 196 204 199 207 212 219 236 244 241 232 213 195 204 252 280 285 288
83 110 257 268 194 248 162 213 249 277 250 234 276 290 278 285 233 224 211 204 204 198 196 196 197 200 199 200 207 206 206 211 210 203 202 215 216 215 221 229 211 191 192 230 268 279 284 285 290
186 160 180 199 227 252 188 214 248 245 268 265 277 279 277 274 241 227 218 211 206 201 197 197 195 197 201 204 203 197 206 208 205 206 210 212 208 195 199 190 184 188 241 278 277 277 277 275 279
235 194 206 270 213 303 254 268 249 247 259 268 259 282 301 272 259 226 217 212 208 203 198 196 197 199 207 203 201 209 208 208 205 203 200 196 186 185 194 189 187 234 245 246 261 273 280 286 292
201 148 95 170 201 239 242 209 238 183 231 243 261 280 330 302 257 225 219 212 209 205 198 196 197 201 199 202 207 200 205 204 200 194 195 183 187 191 189 198 209 214 224 254 290 294 292 295 296
125 211 212 185 167 183 225 230 231 235 229 236 238 252 293 307 250 232 216 207 202 200 195 195 195 195 189 191 193 196 191 192 185 181 179 182 181 184 190 200 212 221 241 269 284 295 294 293 293
265 211 223 215 229 240 190 249 264 84 157 200 237 294 260 288 261 237 205 192 187 190 186 189 186 187 188 192 191 185 180 173 177 178 173 178 181 179 195 207 218 228 256 283 301 299 294 299 306
Height
1494 1496 1497 1499 1511 1513 1513 1494 1478 1476 1473 1465 1463 1462 1456 1456 1455 1475 1452 1457 1461 1463 1469 1475 1481 1486 1490 1494 1497 1500 1502 1505 1507 1509 1512 1513 1515 1517 1520 1521 1523 1524 1525 1526 1526 1528 1528 1529 1531
1492 1494 1497 1498 1513 1519 1499 1478 1473 1472 1466 1465 1465 1461 1459 1457 1456 1452 1455 1459 1464 1466 1470 1474 1479 1484 1490 1494 1497 1501 1504 1505 1507 1509 1510 1513 1514 1516 1517 1520 1522 1525 1526 1527 1527 1528 1529 1529 1530
1491 1493 1496 1499 1509 1504 1483 1467 1468 1468 1468 1468 1468 1463 1461 1456 1452 1452 1454 1458 1461 1466 1471 1475 1481 1484 1489 1494 1499 1501 1504 1506 1507 1510 1511 1514 1516 1518 1519 1521 1523 1525 1527 1527 1527 1528 1529 1529 1531
1490 1494 1495 1501 1494 1478 1465 1461 1465 1467 1466 1466 1468 1464 1461 1456 1456 1453 1454 1458 1463 1468 1473 1477 1482 1486 1490 1494 1498 1501 1504 1507 1509 1511 1513 1515 1517 1518 1519 1522 1524 1526 1527 1527 1527 1528 1530 1531 1531
1488 1489 1497 1498 1484 1470 1463 1460 1465 1468 1466 1466 1469 1464 1459 1455 1455 1454 1454 1461 1464 1468 1473 1478 1482 1486 1490 1495 1498 1502 1504 1506 1509 1512 1514 1516 1518 1520 1521 1522 1524 1526 1528 1529 1530 1530 1530 1531 1531
1485 1485 1499 1486 1468 1462 1461 1459 1461 1464 1463 1462 1465 1461 1455 1452 1454 1455 1458 1459 1463 1466 1473 1478 1482 1487 1490 1494 1498 1502 1505 1506 1509 1512 1514 1516 1519 1521 1522 1523 1525 1527 1529 1530 1530 1531 1532 1532 1532
1478 1486 1486 1480 1474 1465 1454 1456 1457 1458 1459 1457 1461 1460 1454 1452 1454 1456 1458 1462 1465 1468 1471 1476 1480 1486 1490 1494 1499 1503 1506 1507 1510 1513 1515 1517 1519 1520 1521 1524 1526 1528 1530 1531 1532 1533 1533 1534 1534
1474 1477 1478 1473 1464 1463 1449 1450 1450 1452 1452 1455 1457 1455 1452 1451 1452 1455 1458 1461 1464 1466 1470 1475 1480 1485 1489 1494 1499 1503 1507 1509 1511 1515 1517 1519 1520 1521 1522 1524 1525 1528 1530 1530 1531 1531 1532 1532 1533
1470 1478 1478 1465 1463 1449 1445 1449 1448 1449 1448 1450 1453 1453 1446 1443 1448 1452 1454 1459 1464 1467 1470 1473 1479 1484 1489 1493 1497 1502 1506 1508 1512 1514 1516 1519 1521 1522 1522 1523 1524 1525 1526 1527 1528 1528 1529 1531 1530
1463 1468 1456 1447 1443 1445 1449 1450 1448 1448 1445 1443 1445 1445 1439 1440 1443 1447 1449 1453 1459 1463 1468 1473 1477 1483 1487 1492 1496 1501 1504 1509 1512 1513 1515 1518 1521 1522 1522 1524 1526 1527 1528 1529 1528 1529 1529 1529 1529
1455 1445 1444 1439 1442 1445 1444 1446 1445 1444 1441 1441 1442 1444 1445 1435 1439 1442 1446 1449 1451 1458 1464 1470 1476 1481 1486 1491 1495 1499 1503 1508 1511 1514 1517 1518 1520 1521 1523 1524 1527 1528 1527 1528 1530 1530 1530 1531 1531
1454 1442 1441 1438 1442 1442 1442 1442 1438 1437 1434 1437 1439 1443 1448 1445 1436 1439 1445 1449 1452 1457 1463 1468 1474 1479 1485 1490 1494 1498 1502 1506 1510 1512 1515 1517 1518 1520 1522 1523 1526 1527 1526 1525 1528 1528 1529 1531 1530
1446 1441 1437 1438 1440 1438 1441 1438 1439 1427 1430 1431 1433 1439 1439 1440 1436 1440 1444 1448 1452 1456 1460 1465 1469 1474 1480 1486 1492 1496 1500 1505 1509 1513 1514 1516 1517 1520 1522 1524 1525 1526 1526 1527 1527 1527 1527 1528 1529
1437 1436 1436 1436 1435 1437 1440 1435 1437 1410 1426 1426 1429 1433 1434 1435 1438 1439 1443 1446 1451 1454 1458 1462 1467 1472 1479 1483 1488 1493 1500 1504 1504 1509 1513 1516 1515 1520 1523 1524 1526 1526 1527 1528 1528 1528 1529 1529 1528
1436 1438 1432 1429 1431 1433 1438 1432 1412 1420 1424 1421 1423 1429 1433 1434 1437 1439 1437 1441 1447 1452 1456 1459 1464 1470 1475 1480 1487 1491 1496 1501 1503 1506 1511 1516 1516 1518 1522 1522 1524 1525 1526 1526 1527 1525 1527 1527 1529
1436 1435 1438 1419 1425 1428 1432 1417 1405 1414 1419 1420 1418 1424 1428 1431 1432 1435 1438 1440 1445 1449 1453 1458 1464 1468 1473 1477 1483 1486 1490 1496 1498 1502 1508 1512 1515 1517 1518 1519 1521 1521 1524 1525 1524 1523 1524 1524 1526
1438 1440 1434 1428 1416 1422 1424 1406 1405 1412 1412 1413 1413 1416 1424 1427 1427 1430 1433 1438 1443 1446 1450 1456 1461 1465 1470 1476 1479 1484 1488 1492 1497 1499 1508 1510 1514 1514 1517 1517 1518 1521 1521 1522 1522 1520 1522 1524 1523
1437 1437 1427 1427 1418 1418 1418 1405 1407 1408 1409 1408 1410 1411 1416 1420 1423 1423 1429 1434 1439 1443 1448 1454 1458 1463 1468 1474 1476 1483 1488 1492 1493 1500 1507 1507 1509 1512 1515 1516 1517 1520 1519 1519 1519 1519 1520 1520 1520
1431 1432 1434 1429 1422 1424 1417 1410 1407 1406 1402 1405 1405 1409 1411 1414 1419 1421 1424 1430 1435 1441 1446 1451 1455 1460 1465 1468 1474 1480 1483 1488 1493 1500 1505 1505 1506 1509 1514 1514 1515 1517 1518 1518 1518 1518 1517 1518 1517
1430 1432 1430 1427 1422 1421 1417 1408 1405 1404 1398 1396 1398 1404 1407 1410 1413 1417 1422 1426 1430 1435 1443 1449 1453 1457 1461 1466 1471 1476 1482 1487 1492 1498 1501 1505 1506 1508 1511 1513 1515 1514 1516 1516 1516 1516 1514 1515 1514
1428 1427 1428 1432 1425 1415 1420 1408 1397 1396 1393 1391 1391 1398 1401 1401 1404 1410 1415 1421 1427 1431 1437 1443 1448 1454 1458 1462 1469 1475 1483 1486 1489 1495 1498 1502 1503 1505 1509 1513 1513 1512 1513 1515 1515 1514 1512 1513 1514
1427 1420 1422 1425 1428 1431 1417 1422 1390 1392 1390 1387 1384 1388 1393 1395 1398 1403 1409 1414 1421 1426 1432 1437 1444 1450 1455 1461 1467 1470 1475 1481 1486 1492 1495 1499 1501 1505 1508 1510 1510 1510 1512 1513 1514 1513 1511 1513 1513
1416 1416 1420 1422 1426 1429 1427 1433 1395 1386 1390 1385 1380 1380 1387 1392 1392 1398 1403 1408 1415 1421 1426 1434 1440 1446 1451 1457 1465 1471 1475 1480 1486 1490 1496 1499 1499 1502 1505 1506 1507 1508 1511 1512 1512 1513 1512 1513 1513
1407 1413 1418 1421 1429 1431 1424 1427 1380 1388 1383 1379 1377 1377 1383 1387 1389 1392 1396 1403 1408 1415 1422 1429 1435 1442 1447 1454 1462 1468 1472 1476 1483 1488 1494 1498 1499 1501 1503 1504 1507 1507 1510 1512 1514 1514 1513 1513 1512
1410 1419 1433 1439 1435 1417 1413 1419 1387 1377 1377 1375 1374 1379 1384 1385 1385 1387 1390 1395 1402 1408 1417 1426 1433 1439 1444 1452 1458 1464 1469 1473 1480 1485 1489 1494 1497 1498 1501 1504 1506 1509 1511 1513 1513 1513 1513 1512 1511
1410 1415 1429 1434 1417 1405 1400 1403 1377 1370 1375 1376 1374 1374 1380 1382 1383 1382 1383 1388 1394 1402 1411 1419 1428 1435 1442 1449 1457 1464 1469 1473 1479 1482 1485 1490 1496 1497 1501 1504 1506 1509 1511 1511 1512 1511 1511 1512 1510
1403 1409 1402 1412 1409 1416 1403 1389 1369 1366 1369 1369 1369 1371 1373 1376 1377 1378 1381 1381 1387 1395 1403 1413 1423 1432 1439 1448 1454 1460 1467 1472 1475 1481 1486 1491 1495 1498 1502 1504 1506 1508 1509 1511 1511 1511 1511 1512 1510
1395 1395 1410 1411 1424 1406 1402 1393 1377 1364 1364 1363 1367 1366 1369 1369 1369 1371 1374 1375 1379 1388 1399 1411 1419 1427 1437 1445 1451 1458 1464 1468 1474 1479 1484 1488 1495 1499 1501 1504 1506 1507 1509 1510 1510 1511 1511 1510 1510
1398 1397 1401 1400 1408 1414 1404 1393 1358 1356 1360 1361 1359 1363 1363 1364 1362 1363 1365 1373 1374 1384 1396 1407 1417 1425 1435 1442 1450 1456 1462 1468 1474 1480 1486 1490 1495 1498 1500 1504 1507 1507 1508 1509 1510 1510 1510 1509 1509
1388 1388 1395 1392 1397 1397 1394 1373 1352 1354 1357 1358 1358 1357 1356 1356 1355 1358 1361 1370 1372 1383 1392 1405 1413 1423 1433 1441 1448 1455 1461 1468 1473 1480 1485 1491 1494 1497 1502 1505 1507 1508 1507 1508 1508 1510 1510 1508 1504